Time,TemperatureC,DewpointC,PressurehPa,WindDirection,WindDirectionDegrees,WindSpeedKMH,WindSpeedGustKMH,Humidity,HourlyPrecipMM,Conditions,Clouds,dailyrainMM,SolarRadiationWatts/m^2,UVIndex,SoftwareType,DateUTC
2026-09-04 00:04:55,15.7,8.5,999.2,NW,323,0.5,3.7,62.3,0.0,,,0.0,0,0,n/a,2026-09-03T12:04:55Z
2026-09-04 00:09:59,15.4,8.4,999.0,NW,310,2.6,6.4,63,0.0,,,0.0,0,0,n/a,2026-09-03T12:09:59Z
2026-09-04 00:14:57,15.4,8.4,999.0,NW,318,4.8,14.8,63,0.0,,,0.0,0,0,n/a,2026-09-03T12:14:57Z
2026-09-04 00:19:55,15.7,8.4,999.0,NW,318,5.9,16.7,62,0.0,,,0.0,0,0,n/a,2026-09-03T12:19:55Z
2026-09-04 00:24:58,16.1,8.5,998.9,NW,316,5.9,13,60.8,0.0,,,0.0,0,0,n/a,2026-09-03T12:24:58Z
2026-09-04 00:29:58,16.3,8.5,998.8,NNW,338,2.7,9.3,60,0.0,,,0.0,0,0,n/a,2026-09-03T12:29:58Z
2026-09-04 00:34:55,16.3,8.6,998.7,NNW,343,1.5,5.6,60,0.0,,,0.0,0,0,n/a,2026-09-03T12:34:55Z
2026-09-04 00:39:57,16.2,8.5,998.7,NNE,13,1.1,5.6,60.4,0.0,,,0.0,0,0,n/a,2026-09-03T12:39:57Z
2026-09-04 00:44:56,16.1,8.6,998.7,NNW,328,3.9,13,61,0.0,,,0.0,0,0,n/a,2026-09-03T12:44:56Z
2026-09-04 00:49:56,16.2,8.6,998.5,NW,308,6.3,17.7,60.7,0.0,,,0.0,0,0,n/a,2026-09-03T12:49:56Z
2026-09-04 00:54:56,16.3,8.6,998.5,NW,310,5.1,18.5,60,0.0,,,0.0,0,0,n/a,2026-09-03T12:54:56Z
2026-09-04 00:59:56,16.4,8.6,998.4,NW,326,4.8,13,60,0.0,,,0.0,0,0,n/a,2026-09-03T12:59:56Z
2026-09-04 01:04:55,16.4,8.6,998.3,NW,319,4.1,12.9,60,0.0,,,0.0,0,0,n/a,2026-09-03T13:04:55Z
2026-09-04 01:09:57,16.5,8.6,998.3,NW,310,8,16.7,59.8,0.0,,,0.0,0,0,n/a,2026-09-03T13:09:57Z
2026-09-04 01:14:57,16.6,8.6,998.2,NW,323,7.2,14.8,59,0.0,,,0.0,0,0,n/a,2026-09-03T13:14:57Z
2026-09-04 01:19:56,16.8,8.6,998.0,NNW,338,6.1,14.8,58.5,0.0,,,0.0,0,0,n/a,2026-09-03T13:19:56Z
2026-09-04 01:24:59,16.8,8.5,998.0,NW,310,4.8,13,58,0.0,,,0.0,0,0,n/a,2026-09-03T13:24:59Z
2026-09-04 01:29:58,16.8,8.5,997.8,NW,305,4.7,11.3,58,0.0,,,0.0,0,0,n/a,2026-09-03T13:29:58Z
2026-09-04 01:34:56,16.7,8.4,997.8,WNW,295,6.3,13,58.2,0.0,,,0.0,0,0,n/a,2026-09-03T13:34:56Z
2026-09-04 01:39:57,16.7,8.3,997.5,NW,308,6.3,13,58,0.0,,,0.0,0,0,n/a,2026-09-03T13:39:57Z
2026-09-04 01:44:57,16.8,8.3,997.3,WNW,299,8.9,19.3,57.3,0.0,,,0.0,0,0,n/a,2026-09-03T13:44:57Z
2026-09-04 01:49:57,16.9,8.3,997.3,NNW,344,5.8,11.3,56.9,0.0,,,0.0,0,0,n/a,2026-09-03T13:49:57Z
2026-09-04 01:54:55,16.9,8.1,997.2,NW,318,4.7,13,56,0.0,,,0.0,0,0,n/a,2026-09-03T13:54:55Z
2026-09-04 01:59:55,16.9,8.1,997.0,North,349,2.6,8,56,0.0,,,0.0,0,0,n/a,2026-09-03T13:59:55Z
2026-09-04 02:04:57,16.9,8.1,996.9,NW,310,5.7,14.8,56.1,0.0,,,0.0,0,0,n/a,2026-09-03T14:04:57Z
2026-09-04 02:09:58,16.9,8.2,996.7,NNE,30,5.5,14.8,56.3,0.0,,,0.0,0,0,n/a,2026-09-03T14:09:58Z
2026-09-04 02:14:57,16.9,8.1,996.4,NE,43,5,14.8,56,0.0,,,0.0,0,0,n/a,2026-09-03T14:14:57Z
2026-09-04 02:19:55,17,8.3,996.3,ENE,71,4.5,13,56.5,0.0,,,0.0,0,0,n/a,2026-09-03T14:19:55Z
2026-09-04 02:24:56,16.9,8.4,995.9,NNW,329,4.4,11.3,57,0.0,,,0.0,0,0,n/a,2026-09-03T14:24:56Z
2026-09-04 02:29:54,16.8,8.3,995.7,NW,320,4.3,8,57.3,0.0,,,0.0,0,0,n/a,2026-09-03T14:29:54Z
2026-09-04 02:34:58,16.7,8.4,995.1,ENE,64,4.2,11.3,58,0.0,,,0.0,0,0,n/a,2026-09-03T14:34:58Z
2026-09-04 02:39:58,16.7,8.3,995.1,ENE,71,3.6,11.3,58,0.0,,,0.0,0,0,n/a,2026-09-03T14:39:58Z
2026-09-04 02:44:58,16.6,8.5,995.2,NE,34,1.4,4.8,58.7,0.0,,,0.0,0,0,n/a,2026-09-03T14:44:58Z
2026-09-04 02:49:56,16.4,8.5,995.1,NE,52,1,5.6,59.4,0.0,,,0.0,0,0,n/a,2026-09-03T14:49:56Z
2026-09-04 02:54:58,16.2,8.5,994.9,NNE,13,2.2,9.7,60.2,0.0,,,0.0,0,0,n/a,2026-09-03T14:54:58Z
2026-09-04 02:59:55,16.2,8.4,994.6,NW,311,9.5,24.1,60,0.0,,,0.0,0,0,n/a,2026-09-03T14:59:55Z
2026-09-04 03:04:54,16.7,8.5,994.5,NW,306,13.8,25.9,58.4,0.0,,,0.0,0,0,n/a,2026-09-03T15:04:54Z
2026-09-04 03:09:57,17.1,8.5,994.6,NW,310,10.5,18.5,56.9,0.0,,,0.0,0,0,n/a,2026-09-03T15:09:57Z
2026-09-04 03:14:55,17.3,8.4,994.6,NW,311,10.3,18.5,56,0.0,,,0.0,0,0,n/a,2026-09-03T15:14:55Z
2026-09-04 03:19:55,17.4,8.5,994.5,NW,305,6.9,16.7,56,0.0,,,0.0,0,0,n/a,2026-09-03T15:19:55Z
2026-09-04 03:24:56,17.4,8.3,994.6,WNW,303,9,19.3,55.2,0.0,,,0.0,0,0,n/a,2026-09-03T15:24:56Z
2026-09-04 03:29:55,17.6,8.4,994.6,NW,316,7.1,14.8,55,0.0,,,0.0,0,0,n/a,2026-09-03T15:29:55Z